TimePST,TemperatureF,Dew PointF,Humidity,Sea Level PressureIn,VisibilityMPH,Wind Direction,Wind SpeedMPH,Gust SpeedMPH,PrecipitationIn,Events,Conditions,WindDirDegrees,DateUTC
12:15 AM,42.8,39.2,87,29.59,10.0,North,6.9,-,N/A,,Overcast,10,2012-11-21 08:15:00
12:35 AM,44.6,39.2,81,29.57,10.0,North,4.6,-,N/A,,Overcast,10,2012-11-21 08:35:00
12:55 AM,42.8,39.2,87,29.56,10.0,NNW,3.5,-,N/A,,Mostly Cloudy,330,2012-11-21 08:55:00
1:15 AM,44.6,39.2,81,29.54,10.0,NNE,5.8,-,N/A,,Overcast,20,2012-11-21 09:15:00
1:35 AM,42.8,39.2,87,29.54,10.0,Calm,Calm,-,N/A,,Overcast,0,2012-11-21 09:35:00
1:55 AM,44.6,39.2,81,29.54,10.0,Calm,Calm,-,N/A,,Overcast,0,2012-11-21 09:55:00
2:15 AM,42.8,39.2,87,29.54,10.0,Calm,Calm,-,N/A,,Overcast,0,2012-11-21 10:15:00
2:35 AM,42.8,39.2,87,29.56,10.0,Calm,Calm,-,N/A,,Overcast,0,2012-11-21 10:35:00
2:55 AM,42.8,39.2,87,29.55,9.0,SE,3.5,-,0.01,,Overcast,140,2012-11-21 10:55:00
3:15 AM,42.8,39.2,87,29.56,10.0,SE,4.6,-,N/A,,Overcast,140,2012-11-21 11:15:00
3:35 AM,44.6,39.2,81,29.54,10.0,ESE,6.9,-,N/A,,Overcast,110,2012-11-21 11:35:00
3:55 AM,44.6,39.2,81,29.55,10.0,ESE,8.1,-,N/A,,Overcast,120,2012-11-21 11:55:00
4:15 AM,44.6,39.2,81,29.55,10.0,SE,13.8,-,N/A,,Overcast,130,2012-11-21 12:15:00
4:35 AM,44.6,39.2,81,29.56,10.0,SE,16.1,20.7,N/A,,Overcast,140,2012-11-21 12:35:00
4:55 AM,44.6,39.2,81,29.57,10.0,SSE,18.4,24.2,N/A,,Overcast,160,2012-11-21 12:55:00
5:15 AM,44.6,39.2,81,29.59,10.0,SSE,15.0,-,N/A,,Overcast,150,2012-11-21 13:15:00
5:35 AM,44.6,39.2,81,29.59,10.0,South,17.3,25.3,N/A,,Mostly Cloudy,180,2012-11-21 13:35:00
5:55 AM,44.6,39.2,81,29.61,10.0,South,18.4,23.0,0.01,,Overcast,180,2012-11-21 13:55:00
6:15 AM,42.8,37.4,81,29.62,7.0,South,20.7,25.3,0.02,,Overcast,180,2012-11-21 14:15:00
6:35 AM,42.8,39.2,87,29.64,10.0,South,9.2,-,0.05,,Overcast,180,2012-11-21 14:35:00
6:55 AM,42.8,37.4,81,29.66,10.0,South,8.1,-,0.06,,Overcast,180,2012-11-21 14:55:00
7:15 AM,42.8,39.2,87,29.68,9.0,South,11.5,-,0.01,,Overcast,180,2012-11-21 15:15:00
7:35 AM,42.8,39.2,87,29.71,10.0,SW,8.1,-,0.03,,Overcast,230,2012-11-21 15:35:00
7:55 AM,42.8,39.2,87,29.72,10.0,Calm,Calm,-,0.03,,Overcast,0,2012-11-21 15:55:00
8:15 AM,42.8,39.2,87,29.74,9.0,Calm,Calm,-,N/A,,Overcast,0,2012-11-21 16:15:00
8:35 AM,42.8,39.2,87,29.76,5.0,Calm,Calm,-,N/A,,Overcast,0,2012-11-21 16:35:00
8:55 AM,42.8,39.2,87,29.78,10.0,South,10.4,-,N/A,,Overcast,170,2012-11-21 16:55:00
9:15 AM,44.6,39.2,81,29.79,10.0,South,11.5,-,N/A,,Overcast,170,2012-11-21 17:15:00
9:35 AM,44.6,39.2,81,29.81,10.0,South,9.2,-,N/A,,Overcast,170,2012-11-21 17:35:00
9:55 AM,44.6,39.2,81,29.81,10.0,SSE,10.4,-,N/A,,Overcast,160,2012-11-21 17:55:00
10:15 AM,44.6,39.2,81,29.82,10.0,SSE,10.4,-,N/A,,Overcast,150,2012-11-21 18:15:00
10:35 AM,44.6,39.2,81,29.83,10.0,SE,15.0,-,N/A,,Overcast,140,2012-11-21 18:35:00
10:55 AM,44.6,39.2,81,29.84,10.0,SSE,15.0,-,N/A,,Overcast,160,2012-11-21 18:55:00
11:15 AM,44.6,39.2,81,29.84,10.0,SSE,15.0,-,N/A,,Overcast,160,2012-11-21 19:15:00
11:35 AM,44.6,37.4,76,29.85,10.0,South,15.0,-,N/A,,Overcast,170,2012-11-21 19:35:00
11:55 AM,44.6,37.4,76,29.85,10.0,SSE,17.3,24.2,N/A,,Overcast,160,2012-11-21 19:55:00
12:15 PM,44.6,39.2,81,29.86,10.0,SSE,17.3,-,N/A,,Overcast,160,2012-11-21 20:15:00
12:35 PM,44.6,37.4,76,29.86,10.0,SSE,17.3,23.0,N/A,,Overcast,150,2012-11-21 20:35:00
12:55 PM,44.6,37.4,76,29.87,10.0,South,17.3,23.0,N/A,,Overcast,170,2012-11-21 20:55:00
1:15 PM,44.6,37.4,76,29.88,10.0,SE,15.0,-,N/A,,Overcast,140,2012-11-21 21:15:00
1:35 PM,44.6,37.4,76,29.89,10.0,South,13.8,19.6,N/A,,Overcast,170,2012-11-21 21:35:00
1:55 PM,44.6,37.4,76,29.90,10.0,SSE,15.0,23.0,N/A,,Overcast,160,2012-11-21 21:55:00
2:15 PM,44.6,37.4,76,29.91,10.0,SSE,15.0,21.9,N/A,,Overcast,160,2012-11-21 22:15:00
2:35 PM,44.6,37.4,76,29.93,10.0,South,13.8,19.6,N/A,,Overcast,180,2012-11-21 22:35:00
2:55 PM,44.6,37.4,76,29.94,10.0,South,11.5,21.9,N/A,,Overcast,180,2012-11-21 22:55:00
3:15 PM,44.6,37.4,76,29.96,10.0,South,10.4,-,N/A,,Overcast,180,2012-11-21 23:15:00
3:35 PM,44.6,37.4,76,29.98,10.0,SW,10.4,17.3,N/A,,Overcast,220,2012-11-21 23:35:00
3:55 PM,44.6,39.2,81,30.00,9.0,West,5.8,-,0.01,,Overcast,260,2012-11-21 23:55:00
4:15 PM,42.8,39.2,87,30.02,9.0,Calm,Calm,-,0.02,,Overcast,0,2012-11-22 00:15:00
4:35 PM,42.8,39.2,87,30.04,10.0,Calm,Calm,-,0.02,,Overcast,0,2012-11-22 00:35:00
4:55 PM,42.8,39.2,87,30.06,10.0,Calm,Calm,-,0.02,,Overcast,0,2012-11-22 00:55:00
5:15 PM,41.0,39.2,93,30.07,10.0,Calm,Calm,-,N/A,,Overcast,0,2012-11-22 01:15:00
5:35 PM,42.8,39.2,87,30.08,10.0,Calm,Calm,-,N/A,,Overcast,0,2012-11-22 01:35:00
5:55 PM,42.8,39.2,87,30.09,10.0,Calm,Calm,-,N/A,,Overcast,0,2012-11-22 01:55:00
6:15 PM,42.8,39.2,87,30.11,10.0,SE,5.8,-,N/A,,Overcast,140,2012-11-22 02:15:00
6:35 PM,42.8,39.2,87,30.13,10.0,SSE,4.6,-,N/A,,Overcast,160,2012-11-22 02:35:00
6:55 PM,42.8,39.2,87,30.14,10.0,SSE,4.6,-,N/A,,Overcast,160,2012-11-22 02:55:00
7:15 PM,42.8,39.2,87,30.15,10.0,South,4.6,-,N/A,,Overcast,190,2012-11-22 03:15:00
7:35 PM,42.8,39.2,87,30.17,10.0,SSE,6.9,-,N/A,,Overcast,160,2012-11-22 03:35:00
7:55 PM,42.8,39.2,87,30.18,10.0,SSE,8.1,-,N/A,,Overcast,160,2012-11-22 03:55:00
8:15 PM,42.8,39.2,87,30.19,10.0,South,6.9,-,N/A,,Overcast,170,2012-11-22 04:15:00
8:35 PM,42.8,37.4,81,30.21,10.0,South,4.6,-,N/A,,Overcast,190,2012-11-22 04:35:00
8:55 PM,42.8,37.4,81,30.22,10.0,South,4.6,-,N/A,,Overcast,190,2012-11-22 04:55:00
9:15 PM,41.0,37.4,87,30.24,10.0,Calm,Calm,-,N/A,,Overcast,0,2012-11-22 05:15:00
9:35 PM,41.0,37.4,87,30.25,10.0,SSE,8.1,-,N/A,,Overcast,160,2012-11-22 05:35:00
9:55 PM,39.2,37.4,93,30.26,10.0,SSE,4.6,-,N/A,,Overcast,150,2012-11-22 05:55:00
10:15 PM,39.2,37.4,93,30.27,10.0,SSE,6.9,-,N/A,,Mostly Cloudy,150,2012-11-22 06:15:00
10:35 PM,39.2,35.6,87,30.28,10.0,South,4.6,-,N/A,,Scattered Clouds,170,2012-11-22 06:35:00
10:55 PM,39.2,37.4,93,30.29,10.0,SSE,4.6,-,N/A,,Overcast,150,2012-11-22 06:55:00
11:15 PM,39.2,35.6,87,30.29,10.0,SSE,5.8,-,N/A,,Overcast,150,2012-11-22 07:15:00
11:35 PM,39.2,37.4,93,30.31,10.0,SSE,4.6,-,N/A,,Mostly Cloudy,150,2012-11-22 07:35:00
11:55 PM,39.2,35.6,87,30.32,10.0,Calm,Calm,-,N/A,,Clear,0,2012-11-22 07:55:00